| time (UTC) | temp F | wind direction | speed MPH | gust MPH | rain 1hr in | rain 24hr in | rain mn in | humidity % | barometer mb |
| 20260504222027 | 60 | 0 | 1.0 | 3.0 | 0.00 | 0.55 | 0.35 | 95 | 1017.8 |
| 20260504221025 | 62 | 204 | 1.0 | 4.0 | 0.00 | 0.55 | 0.35 | 95 | 1017.5 |
| 20260504220023 | 62 | 218 | 0.0 | 2.0 | 0.00 | 0.55 | 0.35 | 95 | 1017.4 |
| 20260504215024 | 62 | 0 | 0.0 | 1.0 | 0.00 | 0.55 | 0.35 | 95 | 1017.2 |
| 20260504214021 | 62 | 184 | 0.0 | 1.0 | 0.00 | 0.55 | 0.35 | 95 | 1017.0 |
| 20260504213021 | 62 | 18 | 0.0 | 2.0 | 0.00 | 0.55 | 0.35 | 95 | 1016.9 |
| 20260504212505 | 63 | 297 | 0.0 | 2.0 | 0.00 | 0.55 | 0.35 | 95 | 1016.7 |
| 20260504211020 | 63 | 196 | 1.0 | 2.0 | 0.00 | 0.55 | 0.35 | 95 | 1016.4 |
| 20260504210019 | 63 | 98 | 0.0 | 2.0 | 0.00 | 0.55 | 0.35 | 95 | 1016.5 |
| 20260504205502 | 63 | 319 | 0.0 | 2.0 | 0.00 | 0.55 | 0.35 | 95 | 1016.4 |
| 20260504204508 | 63 | 123 | 0.0 | 2.0 | 0.00 | 0.55 | 0.35 | 95 | 1016.3 |
| 20260504203020 | 63 | 0 | 0.0 | 2.0 | 0.00 | 0.55 | 0.35 | 95 | 1016.2 |
| 20260504202020 | 63 | 237 | 0.0 | 2.0 | 0.00 | 0.55 | 0.35 | 95 | 1016.0 |
| 20260504201017 | 63 | 183 | 0.0 | 2.0 | 0.00 | 0.55 | 0.35 | 95 | 1015.9 |
| 20260504200458 | 63 | 115 | 0.0 | 2.0 | 0.00 | 0.55 | 0.35 | 95 | 1015.7 |
| 20260504195458 | 63 | 142 | 1.0 | 3.0 | 0.00 | 0.55 | 0.35 | 95 | 1015.6 |
| 20260504194017 | 63 | 0 | 1.0 | 2.0 | 0.00 | 0.55 | 0.35 | 95 | 1015.7 |
| 20260504193458 | 63 | 174 | 0.0 | 3.0 | 0.00 | 0.55 | 0.35 | 95 | 1015.3 |
| 20260504192018 | 63 | 201 | 0.0 | 2.0 | 0.00 | 0.55 | 0.35 | 95 | 1015.3 |
| 20260504191014 | 63 | 223 | 0.0 | 2.0 | 0.00 | 0.55 | 0.35 | 95 | 1015.1 |
| 20260504190015 | 62 | 203 | 0.0 | 2.0 | 0.00 | 0.55 | 0.35 | 94 | 1015.0 |
| 20260504185013 | 63 | 194 | 0.0 | 2.0 | 0.00 | 0.55 | 0.35 | 94 | 1015.0 |
| 20260504184450 | 63 | 100 | 0.0 | 1.0 | 0.00 | 0.55 | 0.35 | 94 | 1015.0 |
| 20260504183451 | 63 | 188 | 0.0 | 1.0 | 0.00 | 0.55 | 0.35 | 94 | 1015.0 |
| 20260504182013 | 63 | 279 | 0.0 | 1.0 | 0.01 | 0.55 | 0.35 | 94 | 1014.8 |
| 20260504181014 | 63 | 171 | 0.0 | 2.0 | 0.01 | 0.55 | 0.35 | 94 | 1014.8 |
| 20260504180011 | 63 | 196 | 0.0 | 1.0 | 0.01 | 0.55 | 0.35 | 94 | 1014.9 |
| 20260504175451 | 64 | 84 | 0.0 | 2.0 | 0.02 | 0.55 | 0.35 | 94 | 1015.1 |
| 20260504174449 | 63 | 166 | 0.0 | 2.0 | 0.04 | 0.55 | 0.35 | 94 | 1015.0 |
| 20260504173011 | 63 | 146 | 0.0 | 1.0 | 0.07 | 0.55 | 0.34 | 94 | 1014.8 |
| 20260504172011 | 64 | 165 | 0.0 | 1.0 | 0.09 | 0.54 | 0.34 | 94 | 1015.0 |
| 20260504171454 | 64 | 202 | 0.0 | 2.0 | 0.13 | 0.54 | 0.34 | 94 | 1015.0 |
| 20260504170443 | 64 | 191 | 0.0 | 2.0 | 0.15 | 0.54 | 0.33 | 94 | 1015.0 |
| 20260504140956 | 65 | 201 | 1.0 | 2.0 | 0.03 | 0.21 | 0.01 | 93 | 1014.5 |
| 20260504100408 | 68 | 185 | 0.0 | 2.0 | 0.05 | 0.10 | 0.10 | 91 | 1016.1 |
| 20260504081928 | 70 | 151 | 0.0 | 1.0 | 0.01 | 0.04 | 0.04 | 87 | 1015.1 |
| 20260504080927 | 71 | 219 | 0.0 | 2.0 | 0.00 | 0.03 | 0.03 | 86 | 1015.0 |
| 20260504070354 | 71 | 237 | 0.0 | 3.0 | 0.03 | 0.03 | 0.03 | 85 | 1014.3 |
| 20260504045910 | 76 | 211 | 1.0 | 3.0 | 0.00 | 0.00 | 0.00 | 72 | 1014.0 |
| 20260504044909 | 76 | 0 | 0.0 | 2.0 | 0.00 | 0.00 | 0.00 | 71 | 1014.0 |
| 20260504044358 | 77 | 141 | 0.0 | 3.0 | 0.00 | 0.00 | 0.00 | 70 | 1014.0 |
| 20260504042908 | 78 | 0 | 0.0 | 2.0 | 0.00 | 0.00 | 0.00 | 68 | 1014.1 |
| 20260504041908 | 79 | 0 | 0.0 | 2.0 | 0.00 | 0.00 | 0.00 | 66 | 1014.3 |
| 20260504040908 | 79 | 255 | 0.0 | 2.0 | 0.00 | 0.00 | 0.00 | 63 | 1014.3 |
| 20260504035908 | 81 | 54 | 1.0 | 2.0 | 0.00 | 0.00 | 0.00 | 62 | 1014.3 |
| 20260504034908 | 82 | 106 | 1.0 | 2.0 | 0.00 | 0.00 | 0.00 | 58 | 1014.4 |
| 20260504033908 | 83 | 0 | 1.0 | 3.0 | 0.00 | 0.00 | 0.00 | 58 | 1014.4 |
| 20260504032905 | 82 | 352 | 1.0 | 4.0 | 0.00 | 0.00 | 0.00 | 58 | 1014.5 |
| 20260504031906 | 82 | 50 | 1.0 | 5.0 | 0.00 | 0.00 | 0.00 | 58 | 1014.6 |
| 20260504030906 | 82 | 242 | 1.0 | 4.0 | 0.00 | 0.00 | 0.00 | 59 | 1014.7 |
| 20260504025905 | 81 | 0 | 1.0 | 3.0 | 0.00 | 0.00 | 0.00 | 60 | 1014.7 |
| 20260504024906 | 82 | 82 | 1.0 | 5.0 | 0.00 | 0.00 | 0.00 | 60 | 1014.8 |
| 20260504023903 | 81 | 61 | 1.0 | 3.0 | 0.00 | 0.00 | 0.00 | 59 | 1015.0 |
| 20260504022900 | 80 | 17 | 1.0 | 4.0 | 0.00 | 0.00 | 0.00 | 61 | 1015.2 |
| 20260504021900 | 80 | 0 | 1.0 | 5.0 | 0.00 | 0.00 | 0.00 | 63 | 1015.3 |
| 20260504020857 | 80 | 102 | 1.0 | 3.0 | 0.00 | 0.00 | 0.00 | 61 | 1015.6 |
| 20260504015857 | 81 | 60 | 1.0 | 6.0 | 0.00 | 0.00 | 0.00 | 61 | 1016.0 |
| 20260504015332 | 80 | 165 | 1.0 | 5.0 | 0.00 | 0.00 | 0.00 | 62 | 1016.1 |
| 20260504013858 | 80 | 185 | 1.0 | 4.0 | 0.00 | 0.00 | 0.00 | 62 | 1016.3 |
| 20260504012855 | 79 | 27 | 1.0 | 5.0 | 0.00 | 0.00 | 0.00 | 62 | 1016.4 |
| 20260504011854 | 78 | 0 | 1.0 | 4.0 | 0.00 | 0.00 | 0.00 | 65 | 1016.4 |
| 20260504010854 | 78 | 203 | 2.0 | 7.0 | 0.00 | 0.00 | 0.00 | 65 | 1016.4 |
| 20260504005852 | 77 | 324 | 1.0 | 4.0 | 0.00 | 0.00 | 0.00 | 66 | 1016.5 |
| 20260504004853 | 75 | 0 | 2.0 | 6.0 | 0.00 | 0.00 | 0.00 | 70 | 1016.6 |
| 20260504003853 | 75 | 16 | 2.0 | 8.0 | 0.00 | 0.00 | 0.00 | 69 | 1016.7 |
| 20260504003344 | 75 | 33 | 2.0 | 7.0 | 0.00 | 0.00 | 0.00 | 69 | 1016.6 |
| 20260504001850 | 77 | 336 | 1.0 | 6.0 | 0.00 | 0.00 | 0.00 | 68 | 1016.7 |
| 20260504000851 | 76 | 219 | 1.0 | 6.0 | 0.00 | 0.00 | 0.00 | 68 | 1016.8 |
| 20260503235852 | 75 | 93 | 2.0 | 6.0 | 0.00 | 0.00 | 0.00 | 70 | 1016.9 |
| 20260503234852 | 76 | 303 | 1.0 | 4.0 | 0.00 | 0.00 | 0.00 | 70 | 1016.9 |
| 20260503233852 | 76 | 46 | 2.0 | 6.0 | 0.00 | 0.00 | 0.00 | 71 | 1016.8 |
| 20260503232849 | 75 | 98 | 1.0 | 4.0 | 0.00 | 0.00 | 0.00 | 73 | 1017.0 |
| 20260503231848 | 73 | 107 | 1.0 | 3.0 | 0.00 | 0.00 | 0.00 | 76 | 1016.9 |
| 20260503230850 | 73 | 205 | 2.0 | 5.0 | 0.00 | 0.00 | 0.00 | 78 | 1017.0 |
| 20260503225849 | 72 | 35 | 2.0 | 5.0 | 0.00 | 0.00 | 0.00 | 78 | 1016.9 |
| 20260503225321 | 72 | 6 | 2.0 | 5.0 | 0.00 | 0.00 | 0.00 | 78 | 1017.0 |
| 20260503223843 | 72 | 4 | 1.0 | 6.0 | 0.00 | 0.00 | 0.00 | 79 | 1017.0 |